GW4413 Weather Reports


Display with metric or nautical units.
time (UTC)temp
F
wind
direction
speed
MPH
gust
MPH
rain 1hr
in
rain 24hr
in
rain mn
in
humidity
%
barometer
mb
20260508233503 54 29 0.0 0.0 0.00 0.00 0.00 73 1022.2
20260508233022 54 29 0.0 0.0 0.00 0.00 0.00 74 1022.2
20260508232504 54 29 0.0 1.0 0.00 0.00 0.00 73 1022.2
20260508232003 54 29 0.0 1.0 0.00 0.00 0.00 73 1022.2
20260508231523 54 29 0.0 2.0 0.00 0.00 0.00 73 1022.2
20260508231007 54 29 0.0 2.0 0.00 0.00 0.00 72 1022.2
20260508230502 54 29 0.0 1.0 0.00 0.00 0.00 72 1022.2
20260508225508 54 49 0.0 1.0 0.00 0.00 0.00 72 1022.1
20260508225003 54 49 0.0 1.0 0.00 0.00 0.00 74 1022.0
20260508224521 54 49 0.0 0.0 0.00 0.00 0.00 73 1021.9
20260508224007 54 49 0.0 2.0 0.00 0.00 0.00 74 1022.1
20260508223504 54 49 0.0 2.0 0.00 0.00 0.00 72 1022.0
20260508223023 54 49 0.0 2.0 0.00 0.00 0.00 72 1022.1
20260508222507 54 49 0.0 2.0 0.00 0.00 0.00 73 1022.1
20260508222004 54 290 0.0 1.0 0.00 0.00 0.00 74 1022.2
20260508221004 54 248 0.0 1.0 0.00 0.00 0.00 74 1022.1
20260508220503 54 248 0.0 1.0 0.00 0.00 0.00 75 1022.1
20260508220025 54 248 0.0 1.0 0.00 0.00 0.00 75 1022.2
20260508215503 54 248 0.0 1.0 0.00 0.00 0.00 73 1022.2
20260508215004 54 248 0.0 1.0 0.00 0.00 0.00 74 1022.2
20260508214522 54 248 0.0 1.0 0.00 0.00 0.00 73 1022.1
20260508214007 54 248 0.0 2.0 0.00 0.00 0.00 74 1022.1
20260508213503 54 248 0.0 2.0 0.00 0.00 0.00 73 1022.0
20260508213026 54 350 0.0 0.0 0.00 0.00 0.00 76 1021.9
20260508212003 54 350 0.0 1.0 0.00 0.00 0.00 75 1022.0
20260508211522 53 350 0.0 1.0 0.00 0.00 0.00 75 1022.0
20260508211007 53 350 0.0 1.0 0.00 0.00 0.00 76 1022.0
20260508210505 53 350 0.0 1.0 0.00 0.00 0.00 76 1022.0
20260508210023 53 350 0.0 1.0 0.00 0.00 0.00 76 1021.9
20260508205507 53 350 0.0 1.0 0.00 0.00 0.00 76 1021.8
20260508204525 53 48 0.0 1.0 0.00 0.00 0.00 77 1021.8
20260508204006 53 48 0.0 1.0 0.00 0.00 0.00 77 1021.9
20260508203509 53 48 0.0 1.0 0.00 0.00 0.00 78 1021.9
20260508203023 52 48 0.0 1.0 0.00 0.00 0.00 78 1021.9
20260508202505 52 48 0.0 1.0 0.00 0.00 0.00 78 1021.8
20260508202008 52 48 0.0 1.0 0.00 0.00 0.00 78 1021.7
20260508201527 52 41 0.0 1.0 0.00 0.00 0.00 79 1021.6
20260508201007 52 41 0.0 1.0 0.00 0.00 0.00 78 1021.6
20260508200508 52 41 0.0 1.0 0.00 0.00 0.00 79 1021.7
20260508200024 52 41 0.0 0.0 0.00 0.00 0.00 78 1021.6
20260508195504 52 41 0.0 0.0 0.00 0.00 0.00 78 1021.7
20260508195009 51 41 0.0 0.0 0.00 0.00 0.00 79 1021.6
20260508194521 51 41 0.0 0.0 0.00 0.00 0.00 79 1021.6
20260508194009 51 41 0.0 0.0 0.00 0.00 0.00 79 1021.6
20260508193510 51 41 0.0 0.0 0.00 0.00 0.00 79 1021.6
20260508193024 51 41 0.0 0.0 0.00 0.00 0.00 79 1021.6
20260508192505 51 41 0.0 0.0 0.00 0.00 0.00 79 1021.5
20260508192012 51 41 0.0 0.0 0.00 0.00 0.00 80 1021.5
20260508191533 51 41 0.0 0.0 0.00 0.00 0.00 80 1021.3
20260508191006 51 41 0.0 1.0 0.00 0.00 0.00 80 1021.3
20260508190509 51 41 0.0 1.0 0.00 0.00 0.00 80 1021.3
20260508190032 51 41 0.0 1.0 0.00 0.00 0.00 79 1021.2
20260508185507 51 41 0.0 1.0 0.00 0.00 0.00 79 1021.2
20260508185010 51 41 0.0 0.0 0.00 0.00 0.00 79 1021.2
20260508184523 51 41 0.0 1.0 0.00 0.00 0.00 81 1021.2
20260508184005 51 41 0.0 1.0 0.00 0.00 0.00 81 1021.0
20260508183511 51 41 0.0 1.0 0.00 0.00 0.00 81 1021.0
20260508183020 51 41 0.0 1.0 0.00 0.00 0.00 83 1021.1
20260508182506 51 41 0.0 1.0 0.00 0.00 0.00 83 1021.0
20260508182011 51 41 0.0 1.0 0.00 0.00 0.00 83 1020.9
20260508181531 51 41 0.0 1.0 0.00 0.00 0.00 84 1021.0
20260508181005 51 41 0.0 1.0 0.00 0.00 0.00 85 1020.9
20260508180509 51 41 0.0 1.0 0.00 0.00 0.00 85 1021.0
20260508180022 51 41 0.0 1.0 0.00 0.00 0.00 84 1020.8
20260508175508 51 41 0.0 1.0 0.00 0.00 0.00 84 1020.8
20260508175012 51 41 0.0 1.0 0.00 0.00 0.00 84 1020.8
20260508174524 51 41 0.0 2.0 0.00 0.00 0.00 83 1020.7
20260508174007 51 41 0.0 2.0 0.00 0.00 0.00 83 1020.6
20260508173509 51 41 0.0 2.0 0.00 0.00 0.00 83 1020.5
20260508173024 52 41 0.0 1.0 0.00 0.00 0.00 83 1020.4
20260508172505 51 41 0.0 2.0 0.00 0.00 0.00 83 1020.3
20260508172010 52 41 0.0 2.0 0.00 0.00 0.00 83 1020.3
20260508171525 52 41 0.0 1.0 0.00 0.00 0.00 84 1020.3
20260508171004 51 41 0.0 1.0 0.00 0.00 0.00 83 1020.4
20260508170507 51 41 0.0 1.0 0.00 0.00 0.00 83 1020.3
20260508170022 51 41 0.0 1.0 0.00 0.00 0.00 84 1020.2
20260508165503 51 41 0.0 2.0 0.00 0.00 0.00 84 1020.0
20260508165009 51 41 0.0 2.0 0.00 0.00 0.00 84 1019.8
20260508164525 51 41 0.0 2.0 0.00 0.00 0.00 83 1019.9
20260508164007 51 41 0.0 1.0 0.00 0.00 0.00 84 1019.8
20260508163508 51 41 0.0 2.0 0.00 0.00 0.00 84 1019.9
20260508163021 51 41 0.0 2.0 0.00 0.00 0.00 84 1019.8
20260508162508 51 41 0.0 1.0 0.00 0.00 0.00 85 1019.6
20260508162011 51 41 0.0 1.0 0.00 0.00 0.00 85 1019.5
20260508161521 51 41 0.0 2.0 0.00 0.00 0.00 85 1019.6
20260508161010 50 41 0.0 2.0 0.00 0.00 0.00 84 1019.4
20260508160510 50 41 0.0 1.0 0.00 0.00 0.00 85 1019.4
20260508160019 50 41 0.0 1.0 0.00 0.00 0.00 85 1019.4
20260508155508 50 41 0.0 1.0 0.00 0.00 0.00 85 1019.5
20260508155010 50 41 0.0 1.0 0.00 0.00 0.00 84 1019.5
20260508154522 50 41 0.0 1.0 0.00 0.00 0.00 85 1019.3
20260508154012 50 41 0.0 1.0 0.00 0.00 0.00 86 1019.3
20260508153513 50 41 0.0 1.0 0.00 0.00 0.00 86 1019.4
20260508153020 50 41 0.0 0.0 0.00 0.00 0.00 86 1019.5
20260508152515 50 41 0.0 0.0 0.00 0.00 0.00 87 1019.5
20260508152005 49 41 0.0 0.0 0.00 0.00 0.00 87 1019.4
20260508151508 49 41 0.0 0.0 0.00 0.00 0.00 87 1019.3
20260508150504 49 41 0.0 0.0 0.00 0.00 0.00 88 1019.3
20260508150017 49 41 0.0 0.0 0.00 0.00 0.00 88 1019.2
20260508145004 49 41 0.0 0.0 0.00 0.00 0.00 87 1019.1
20260508144512 49 41 0.0 0.0 0.00 0.00 0.00 87 1019.1
20260508144004 49 41 0.0 0.0 0.00 0.00 0.00 88 1019.0
20260508143502 49 41 0.0 0.0 0.00 0.00 0.00 87 1019.0
20260508143010 49 41 0.0 0.0 0.00 0.00 0.00 87 1018.9
20260508142502 49 41 0.0 0.0 0.00 0.00 0.00 87 1018.8
20260508142003 49 41 0.0 0.0 0.00 0.00 0.00 87 1018.7
20260508141512 49 41 0.0 0.0 0.00 0.00 0.00 87 1018.6
20260508141005 49 41 0.0 0.0 0.00 0.00 0.00 87 1018.4
20260508140011 49 41 0.0 1.0 0.00 0.00 0.00 87 1018.3
20260508135003 49 41 0.0 1.0 0.00 0.00 0.00 87 1018.2
20260508134518 49 41 0.0 1.0 0.00 0.00 0.00 87 1018.1
20260508134008 49 41 0.0 1.0 0.00 0.00 0.00 87 1018.0
20260508133505 49 41 0.0 1.0 0.00 0.00 0.00 87 1017.9
20260508133015 49 41 0.0 1.0 0.00 0.00 0.00 87 1017.8
20260508132003 48 41 0.0 1.0 0.00 0.00 0.00 87 1017.9
20260508131515 48 41 0.0 1.0 0.00 0.00 0.00 88 1017.8
20260508131007 48 41 0.0 1.0 0.00 0.00 0.00 87 1017.7
20260508130503 48 41 0.0 1.0 0.00 0.00 0.00 88 1017.7
20260508130016 48 41 0.0 1.0 0.00 0.00 0.00 88 1017.7
20260508125504 48 41 0.0 1.0 0.00 0.00 0.00 88 1017.6
20260508125004 48 41 0.0 1.0 0.00 0.00 0.00 88 1017.6
20260508124511 48 41 0.0 1.0 0.00 0.00 0.00 88 1017.6
20260508123503 48 41 0.0 1.0 0.00 0.00 0.00 88 1017.5
20260508123026 48 41 0.0 1.0 0.00 0.00 0.00 88 1017.6
20260508122503 48 41 0.0 1.0 0.00 0.00 0.00 89 1017.5
20260508122005 48 41 0.0 1.0 0.00 0.00 0.00 89 1017.5
20260508121003 48 41 0.0 1.0 0.00 0.00 0.00 89 1017.6
20260508120503 48 41 0.0 1.0 0.00 0.00 0.00 90 1017.5
20260508120017 48 41 0.0 1.0 0.00 0.00 0.00 90 1017.4
20260508115508 48 41 0.0 1.0 0.00 0.00 0.00 90 1017.5
20260508115006 47 41 0.0 1.0 0.00 0.00 0.00 90 1017.6
20260508114008 47 41 0.0 0.0 0.00 0.00 0.00 91 1017.4
20260508113505 47 41 0.0 0.0 0.00 0.00 0.00 90 1017.4
20260508113016 47 41 0.0 0.0 0.00 0.00 0.00 90 1017.4
20260508112006 47 41 0.0 0.0 0.00 0.00 0.00 90 1017.4
20260508111007 47 41 0.0 0.0 0.00 0.00 0.00 90 1017.3
20260508110507 47 41 0.0 0.0 0.00 0.00 0.00 90 1017.2
20260508110018 47 41 0.0 1.0 0.00 0.00 0.00 90 1017.2
20260508105505 47 41 0.0 1.0 0.00 0.00 0.00 90 1017.2
20260508105008 47 41 0.0 0.0 0.00 0.00 0.00 90 1017.1
20260508104522 47 41 0.0 0.0 0.00 0.00 0.00 90 1017.1
20260508104004 47 41 0.0 0.0 0.00 0.00 0.00 90 1017.0
20260508103508 47 41 0.0 0.0 0.00 0.00 0.00 90 1017.1
20260508103026 47 41 0.0 0.0 0.00 0.00 0.00 90 1017.2
20260508102505 47 41 0.0 0.0 0.00 0.00 0.00 89 1017.0
20260508101526 47 41 0.0 0.0 0.00 0.00 0.00 89 1016.9
20260508101006 47 41 0.0 0.0 0.00 0.00 0.00 89 1017.0
20260508100514 47 41 0.0 0.0 0.00 0.00 0.00 89 1017.0
20260508100020 47 41 0.0 0.0 0.00 0.00 0.00 89 1016.9
20260508095505 48 41 0.0 0.0 0.00 0.00 0.00 89 1016.9
20260508094521 48 41 0.0 0.0 0.00 0.00 0.00 88 1016.8
20260508094004 48 41 0.0 0.0 0.00 0.00 0.00 88 1016.7
20260508092507 48 41 0.0 0.0 0.00 0.00 0.00 88 1016.7
20260508092002 48 41 0.0 0.0 0.00 0.00 0.00 88 1016.8
20260508091504 48 41 0.0 0.0 0.00 0.00 0.00 88 1016.8
20260508091005 48 41 0.0 0.0 0.00 0.00 0.00 88 1016.8
20260508090504 48 41 0.0 0.0 0.00 0.00 0.00 88 1016.8
20260508085504 48 41 0.0 0.0 0.00 0.00 0.00 88 1016.9
20260508085002 48 41 0.0 0.0 0.00 0.00 0.00 87 1016.8
20260508084504 48 41 0.0 0.0 0.00 0.00 0.00 87 1016.7
20260508084004 48 41 0.0 0.0 0.00 0.00 0.00 87 1016.7
20260508083504 48 41 0.0 0.0 0.00 0.00 0.00 87 1016.7
20260508083003 48 41 0.0 0.0 0.00 0.00 0.00 87 1016.8
20260508082507 48 41 0.0 0.0 0.00 0.00 0.00 87 1016.9
20260508082004 48 41 0.0 0.0 0.00 0.00 0.00 87 1016.9
20260508081508 48 41 0.0 0.0 0.00 0.00 0.00 87 1016.9
20260508081005 48 41 0.0 0.0 0.00 0.00 0.00 86 1017.0
20260508080505 48 41 0.0 0.0 0.00 0.00 0.00 86 1016.9
20260508080003 48 41 0.0 0.0 0.00 0.00 0.00 87 1016.9
20260508075506 48 41 0.0 0.0 0.00 0.00 0.00 86 1016.8
20260508075002 48 41 0.0 0.0 0.00 0.00 0.00 87 1016.7
20260508074007 48 41 0.0 0.0 0.00 0.00 0.00 87 1017.0
20260508073023 48 41 0.0 0.0 0.00 0.00 0.00 87 1017.1
20260508072503 48 41 0.0 0.0 0.00 0.00 0.00 87 1017.1
20260508072003 48 41 0.0 0.0 0.00 0.00 0.00 87 1017.1
20260508071530 48 41 0.0 0.0 0.00 0.00 0.00 86 1017.1
20260508070505 48 41 0.0 0.0 0.00 0.00 0.00 86 1017.2
20260508070025 48 41 0.0 0.0 0.00 0.00 0.00 86 1017.3
20260508065506 48 41 0.0 0.0 0.00 0.00 0.00 86 1017.3
20260508065003 48 41 0.0 0.0 0.00 0.00 0.00 86 1017.2
20260508064007 48 41 0.0 0.0 0.00 0.00 0.00 86 1017.1
20260508063502 49 41 0.0 0.0 0.00 0.00 0.00 86 1017.2
20260508063023 49 41 0.0 0.0 0.00 0.00 0.00 86 1017.3
20260508062507 49 41 0.0 0.0 0.00 0.00 0.00 85 1017.3
20260508062010 49 41 0.0 0.0 0.00 0.00 0.00 85 1017.2
20260508061523 49 41 0.0 0.0 0.00 0.00 0.00 85 1017.3
20260508061008 49 41 0.0 1.0 0.00 0.00 0.00 85 1017.3
20260508060508 49 41 0.0 1.0 0.00 0.00 0.00 85 1017.3
20260508060023 49 41 0.0 0.0 0.00 0.00 0.00 85 1017.3
20260508055009 49 41 0.0 0.0 0.00 0.00 0.00 85 1017.4
20260508054523 49 41 0.0 0.0 0.00 0.00 0.00 85 1017.4
20260508054007 49 41 0.0 0.0 0.00 0.00 0.00 85 1017.4
20260508053510 49 41 0.0 0.0 0.00 0.00 0.00 84 1017.4
20260508052506 49 41 0.0 0.0 0.00 0.00 0.00 84 1017.4
20260508052012 49 41 0.0 0.0 0.00 0.00 0.00 84 1017.4
20260508051526 49 41 0.0 0.0 0.00 0.00 0.00 84 1017.4
20260508051008 50 41 0.0 0.0 0.00 0.00 0.00 84 1017.4
20260508050511 50 41 0.0 0.0 0.00 0.00 0.00 83 1017.3
20260508050027 50 41 0.0 0.0 0.00 0.00 0.00 83 1017.3
20260508045006 50 41 0.0 0.0 0.00 0.00 0.00 83 1017.3
20260508044524 50 41 0.0 0.0 0.00 0.00 0.00 83 1017.4
20260508044007 50 41 0.0 0.0 0.00 0.00 0.00 82 1017.4
20260508043518 51 41 0.0 0.0 0.00 0.00 0.00 82 1017.4
20260508042507 51 41 0.0 0.0 0.00 0.00 0.00 81 1017.5
20260508042010 51 41 0.0 0.0 0.00 0.00 0.00 81 1017.6
20260508041522 51 41 0.0 0.0 0.00 0.00 0.00 81 1017.6
20260508041007 51 41 0.0 0.0 0.00 0.00 0.00 80 1017.6
20260508040516 52 41 0.0 0.0 0.00 0.00 0.00 80 1017.6
20260508040021 52 41 0.0 0.0 0.00 0.00 0.00 81 1017.6
20260508035506 52 41 0.0 0.0 0.00 0.00 0.00 80 1017.6
20260508035012 52 41 0.0 0.0 0.00 0.00 0.00 80 1017.6
20260508034524 52 41 0.0 0.0 0.00 0.00 0.00 79 1017.6
20260508034008 53 41 0.0 0.0 0.00 0.00 0.00 79 1017.6
20260508033514 53 41 0.0 0.0 0.00 0.00 0.00 79 1017.6
20260508033020 53 41 0.0 0.0 0.00 0.00 0.00 78 1017.5
20260508032512 53 41 0.0 0.0 0.00 0.00 0.00 78 1017.5
20260508032008 54 41 0.0 0.0 0.00 0.00 0.00 78 1017.5
20260508031504 54 41 0.0 0.0 0.00 0.00 0.00 77 1017.5
20260508031007 54 41 0.0 0.0 0.00 0.00 0.00 77 1017.5
20260508030504 54 41 0.0 0.0 0.00 0.00 0.00 77 1017.6
20260508030024 54 41 0.0 0.0 0.00 0.00 0.00 77 1017.6
20260508025507 55 41 0.0 0.0 0.00 0.00 0.00 77 1017.6
20260508025010 55 41 0.0 0.0 0.00 0.00 0.00 77 1017.6
20260508024522 55 41 0.0 0.0 0.00 0.00 0.00 76 1017.6
20260508023506 55 41 0.0 1.0 0.00 0.00 0.00 75 1017.6
20260508023021 55 41 0.0 1.0 0.00 0.00 0.00 74 1017.7
20260508022506 55 41 0.0 1.0 0.00 0.00 0.00 74 1017.7
20260508022003 56 41 0.0 1.0 0.00 0.00 0.00 73 1017.8
20260508021009 57 41 0.0 1.0 0.00 0.00 0.00 73 1017.9
20260508020503 57 41 0.0 1.0 0.00 0.00 0.00 71 1017.8
20260508015507 58 41 0.0 1.0 0.00 0.00 0.00 72 1017.7
20260508015003 58 41 0.0 1.0 0.00 0.00 0.00 73 1017.7
20260508014522 58 41 0.0 0.0 0.00 0.00 0.00 72 1017.8
20260508014008 58 41 0.0 0.0 0.00 0.00 0.00 71 1017.8
20260508013508 58 41 0.0 0.0 0.00 0.00 0.00 71 1017.9
20260508013033 58 41 0.0 0.0 0.00 0.00 0.00 71 1018.0
20260508012507 58 41 0.0 1.0 0.00 0.00 0.00 70 1018.0
20260508012004 59 41 0.0 1.0 0.00 0.00 0.00 70 1018.0
20260508011523 59 41 0.0 1.0 0.00 0.00 0.00 70 1018.0
20260508011006 59 41 0.0 1.0 0.00 0.00 0.00 68 1018.1
20260508010503 59 41 0.0 1.0 0.00 0.00 0.00 69 1018.2
20260508005510 59 41 0.0 1.0 0.00 0.00 0.00 70 1018.2
20260508005006 59 41 0.0 1.0 0.00 0.00 0.00 70 1018.2
20260508004008 59 41 0.0 2.0 0.00 0.00 0.00 69 1018.3
20260508003507 59 41 0.0 2.0 0.00 0.00 0.00 70 1018.3
20260508003025 58 41 0.0 1.0 0.00 0.00 0.00 69 1018.3
20260508002004 59 41 0.0 2.0 0.00 0.00 0.00 68 1018.4
20260508001521 59 41 0.0 2.0 0.00 0.00 0.00 69 1018.4
20260508001004 59 41 0.0 2.0 0.00 0.00 0.00 69 1018.5
20260508000504 59 41 0.0 2.0 0.00 0.00 0.00 70 1018.5
20260508000022 58 41 0.0 2.0 0.00 0.00 0.00 70 1018.5
20260507235507 58 41 0.0 1.0 0.00 0.00 0.00 69 1018.5
20260507234522 58 41 0.0 1.0 0.00 0.00 0.00 69 1018.5